GW6805 Weather Reports


time (UTC)temp
F
wind
direction
speed
knots
gust
knots
rain 1hr
in
rain 24hr
in
rain mn
in
humidity
%
barometer
mb
20260504150905 70 360 8.7 16.5 0.00 0.11 0.00 80
20260504140927 70 270 13.9 15.6 0.00 0.11 0.00 81
20260504120113 67 235 8.7 12.2 0.00 0.11 0.00 85 1014.7
20260504081805 67 135 0.9 5.2 0.00 0.13 0.00 90
20260504081610 67 150 0.9 5.2 0.00 0.13 0.00 90 1014.2
20260504080905 66 135 0.0 4.3 0.00 0.13 0.00 93
20260504070107 64 42 2.6 4.3 0.00 0.13 0.00 96 1013.7
20260504060106 61 140 1.7 3.5 0.00 0.13 0.00 96 1014.2
20260504050125 58 140 0.9 1.7 0.00 0.13 0.00 95 1014.0
20260504045427 59 270 0.0 0.9 0.00 0.13 0.00 95
20260504044526 58 140 0.0 0.9 0.00 0.13 0.00 95 1013.9
20260504044505 59 270 0.9 1.7 0.00 0.13 0.00 95
20260504043626 59 270 0.9 1.7 0.00 0.13 0.00 95
20260504043008 59 140 0.0 1.7 0.00 0.13 0.00 95 1013.8
20260504042727 60 270 1.7 2.6 0.00 0.13 0.00 95
20260504041805 60 270 1.7 2.6 0.00 0.13 0.00 95
20260504041609 59 140 1.7 2.6 0.00 0.13 0.00 95 1014.0
20260504040905 60 270 0.0 2.6 0.00 0.13 0.00 95
20260504040048 60 140 0.0 2.6 0.00 0.13 0.00 95 1014.3
20260504040026 60 270 2.6 2.6 0.00 0.13 0.00 94
20260504035406 60 270 2.6 2.6 0.00 0.13 0.00 94
20260504034536 60 140 1.7 2.6 0.00 0.13 0.00 94 1014.3
20260504034526 61 270 1.7 2.6 0.00 0.13 0.00 94
20260504033606 61 270 1.7 2.6 0.00 0.13 0.00 94
20260504033006 61 140 1.7 2.6 0.00 0.13 0.00 94 1014.1
20260504032705 62 270 0.0 1.7 0.00 0.13 0.00 94
20260504031826 62 270 0.0 1.7 0.00 0.13 0.00 94
20260504031630 61 140 0.9 1.7 0.00 0.13 0.00 94 1014.4
20260504030926 62 270 0.0 0.9 0.00 0.13 0.00 94
20260504030051 62 140 0.0 0.9 0.00 0.13 0.00 94 1014.4
20260504030005 63 270 0.0 1.7 0.00 0.13 0.00 95
20260504025405 63 270 0.0 1.7 0.00 0.13 0.00 95
20260504024522 62 140 0.0 1.7 0.00 0.13 0.00 95 1014.5
20260504024505 63 180 0.9 1.7 0.00 0.13 0.00 95
20260504023626 63 180 0.9 1.7 0.00 0.13 0.00 95
20260504023008 62 312 0.0 1.7 0.00 0.13 0.00 95 1014.6
20260504022706 63 180 0.9 2.6 0.00 0.13 0.00 94
20260504021805 63 180 0.9 2.6 0.00 0.13 0.00 94
20260504021613 62 312 0.0 2.6 0.00 0.13 0.00 94 1014.3
20260504020905 63 180 1.7 2.6 0.00 0.13 0.00 94
20260504020050 62 312 1.7 2.6 0.00 0.13 0.00 94 1014.4
20260504020005 62 180 3.5 4.3 0.00 0.13 0.00 94
20260504015406 62 180 3.5 4.3 0.00 0.13 0.00 94
20260504014533 62 312 2.6 4.3 0.00 0.13 0.00 94 1014.4
20260504014505 62 337 0.0 1.7 0.00 0.13 0.00 94
20260504013605 62 337 0.0 1.7 0.00 0.13 0.00 94
20260504013115 62 175 0.0 1.7 0.00 0.13 0.00 94 1014.4
20260504012705 63 337 0.0 1.7 0.00 0.13 0.00 94
20260504011806 63 337 0.0 1.7 0.00 0.13 0.00 94
20260504011558 63 175 0.0 1.7 0.00 0.13 0.00 94 1014.2
20260504010905 63 337 0.9 4.3 0.00 0.13 0.00 94
20260504010045 63 175 0.9 4.3 0.00 0.13 0.00 94 1014.5
20260504010006 64 337 0.9 8.7 0.00 0.13 0.00 94
20260504005426 64 337 0.9 8.7 0.00 0.13 0.00 94
20260504004520 63 175 1.7 8.7 0.00 0.13 0.00 94 1014.8
20260504004505 64 90 3.5 7.8 0.00 0.13 0.00 94
20260504003605 64 90 3.5 7.8 0.00 0.13 0.00 94
20260504003117 63 132 4.3 7.8 0.00 0.13 0.00 94 1015.1
20260504002705 64 202 5.2 7.0 0.00 0.13 0.00 94
20260504001805 64 202 5.2 7.0 0.00 0.13 0.00 94
20260504001612 63 169 2.6 7.0 0.00 0.13 0.00 94 1015.6
20260504000905 63 45 0.9 4.3 0.00 0.13 0.00 94
20260504000048 63 178 1.7 4.3 0.00 0.13 0.00 94 1015.4
20260504000006 63 112 0.9 2.6 0.00 0.13 0.00 94
20260503235405 63 112 0.9 2.6 0.00 0.13 0.00 94
20260503234524 63 133 0.9 2.6 0.00 0.13 0.00 94 1015.5
20260503234505 63 112 0.0 2.6 0.00 0.13 0.00 93
20260503233605 63 112 0.0 2.6 0.00 0.13 0.00 93
20260503233005 63 133 0.0 2.6 0.00 0.13 0.00 93 1015.3
20260503232705 63 112 0.9 1.7 0.00 0.13 0.00 93
20260503231806 63 112 0.9 1.7 0.00 0.13 0.00 93
20260503231608 63 133 0.0 1.7 0.00 0.13 0.00 93 1015.1
20260503230927 64 112 1.7 2.6 0.00 0.13 0.00 92
20260503230053 63 133 0.9 2.6 0.00 0.13 0.00 92 1015.2
20260503230026 64 112 0.9 3.5 0.00 0.13 0.00 93
20260503225405 64 112 0.9 3.5 0.00 0.13 0.00 93
20260503224533 63 133 1.7 3.5 0.00 0.13 0.00 93 1015.3
20260503224505 64 22 5.2 6.1 0.00 0.13 0.00 92
20260503223626 64 22 5.2 6.1 0.00 0.13 0.00 92
20260503223010 63 145 4.3 6.1 0.00 0.13 0.00 92 1015.1
20260503222705 64 360 3.5 4.3 0.06 0.13 0.00 91
20260503221806 64 360 3.5 4.3 0.06 0.13 0.00 91
20260503221607 63 128 2.6 4.3 0.05 0.13 0.00 91 1015.0
20260503220906 63 202 0.9 3.5 0.11 0.13 0.00 90
20260503220054 63 137 0.9 3.5 0.11 0.13 0.13 90 1015.0
20260503220006 64 202 0.9 2.6 0.11 0.13 0.00 89
20260503215407 64 202 0.9 2.6 0.11 0.13 0.13 89
20260503214547 63 137 0.0 2.6 0.11 0.13 0.13 89 1015.1
20260503214526 64 202 1.7 2.6 0.11 0.13 0.13 89
20260503213605 64 202 1.7 2.6 0.11 0.13 0.13 89
20260503213014 63 137 0.0 2.6 0.11 0.13 0.13 89 1015.4
20260503212705 64 292 1.7 2.6 0.06 0.08 0.08 87
20260503211805 64 292 1.7 2.6 0.06 0.08 0.08 87
20260503211622 63 173 0.9 2.6 0.06 0.08 0.08 87 1015.1
20260503210906 63 112 1.7 1.7 0.00 0.02 0.02 85
20260503210056 63 69 0.9 1.7 0.00 0.02 0.02 85 1015.1
20260503210006 63 0 0.0 0.0 0.00 0.02 0.02 84
20260503205405 63 0 0.0 0.0 0.00 0.02 0.02 84
20260503204559 63 69 0.0 0.0 0.00 0.02 0.02 84 1014.8
20260503204505 64 112 0.0 1.7 0.00 0.02 0.02 84
20260503203605 64 112 0.0 1.7 0.00 0.02 0.02 84
20260503203022 63 69 0.0 1.7 0.00 0.02 0.02 84 1014.7
20260503202728 64 112 0.9 1.7 0.00 0.02 0.02 83
20260503201805 64 112 0.9 1.7 0.00 0.02 0.02 83
20260503201501 63 69 0.0 1.7 0.00 0.02 0.02 83 1014.6
20260503200905 64 112 0.9 1.7 0.00 0.02 0.02 82
20260503200105 64 69 0.9 1.7 0.00 0.02 0.02 82 1014.9
20260503200005 65 112 0.9 2.6 0.00 0.02 0.02 82
20260503195405 65 112 0.9 2.6 0.00 0.02 0.02 82
20260503194552 64 69 0.9 2.6 0.00 0.02 0.02 82 1014.5
20260503194505 65 112 2.6 2.6 0.00 0.02 0.02 82
20260503193627 65 112 2.6 2.6 0.00 0.02 0.02 82
20260503193036 65 69 1.7 2.6 0.00 0.02 0.02 82 1014.3
20260503192705 66 67 2.6 4.3 0.00 0.02 0.02 81
20260503191806 66 67 2.6 4.3 0.00 0.02 0.02 81
20260503191513 65 67 1.7 4.3 0.00 0.02 0.02 81 1014.4
20260503190905 66 270 2.6 7.0 0.00 0.02 0.02 81
20260503190110 65 92 3.5 7.0 0.00 0.02 0.02 81 1014.5
20260503190006 66 45 6.1 7.8 0.00 0.02 0.02 80
20260503185407 66 45 6.1 7.8 0.00 0.02 0.02 80
20260503184611 66 98 3.5 7.8 0.00 0.02 0.02 80 1014.7
20260503184507 67 292 8.7 10.4 0.00 0.02 0.02 77
20260503183606 67 292 8.7 10.4 0.00 0.02 0.02 77
20260503183043 67 125 7.8 10.4 0.00 0.02 0.02 77 1014.7
20260503182706 68 67 6.1 10.4 0.00 0.02 0.02 74
20260503181807 68 67 6.1 10.4 0.00 0.02 0.02 74
20260503181512 68 115 7.0 10.4 0.00 0.02 0.02 74 1014.7
20260503180927 69 360 6.1 10.4 0.00 0.02 0.02 72
20260503180114 68 128 7.0 10.4 0.00 0.02 0.02 72 1014.9
20260503180027 70 112 3.5 11.3 0.00 0.02 0.02 69
20260503175406 70 112 3.5 11.3 0.00 0.02 0.02 69
20260503174620 69 117 6.1 11.3 0.00 0.02 0.02 69 1014.9
20260503174527 71 112 7.0 10.4 0.00 0.02 0.02 67
20260503173627 71 112 7.0 10.4 0.00 0.02 0.02 67
20260503173048 71 117 7.0 10.4 0.00 0.02 0.02 67 1014.8
20260503172726 72 360 7.8 10.4 0.00 0.02 0.02 67
20260503171805 72 360 7.8 10.4 0.00 0.02 0.02 67
20260503171527 71 160 6.1 10.4 0.00 0.02 0.02 67 1014.6
20260503170905 73 337 9.6 11.3 0.00 0.02 0.02 67